"2009-02-17 00:00:00",636829,5.043,95.7,6.823,1.383,12.34,104.1638,9.93,11.05,18.07,0,110.2,13.36,10.72,57.7
"2009-02-17 00:00:30",636830,5.403,96.1,6.968,1.291,12.18,104.1636,9.93,11,18.21,0,110.2,13.35,10.72,58.1
"2009-02-17 00:01:00",636831,4.045,93.9,5.485,0.353,9.67,104.1554,9.91,10.93,18.17,0,110.2,13.39,10.70,55.9
"2009-02-17 00:01:30",636832,3.658,88.8,1.689,0.159,8.52,104.1466,9.89,10.79,17.89,0,110.2,13.39,10.68,50.8
"2009-02-17 00:02:00",636833,3.782,87.8,4.311,0.638,9.39,104.1492,9.9,10.85,17.84,0,110.1,13.36,10.68,49.8
"2009-02-17 00:02:30",636834,4.615,87.7,6.331,1.188,10.6,104.1489,9.89,10.81,17.95,0,110.2,13.36,10.68,49.7
"2009-02-17 00:03:00",636835,5.677,97.5,6.057,1.22,13.4,104.1385,9.87,11,18.14,0,110.2,13.36,10.65,59.5
"2009-02-17 00:03:30",636836,4.995,80.4,6.071,0.999,11.28,104.1311,9.85,10.85,18.09,0,110.2,13.36,10.64,42.4
"2009-02-17 00:04:00",636837,4.972,84.1,8.16,1.264,13.08,104.13,9.85,11.06,18.22,0,110.2,13.36,10.63,46.1
"2009-02-17 00:04:30",636838,4.698,89.7,7.126,1.235,11.7,104.13,9.85,10.92,17.98,0,110.2,13.35,10.63,51.7
"2009-02-17 00:05:00",636839,3.631,81.7,2.183,0.104,8.81,104.13,9.85,10.75,17.88,0,110.1,13.39,10.63,43.7
"2009-02-17 00:05:30",636840,3.576,82,4.618,0.151,8.55,104.13,9.85,10.77,17.87,0,110.1,13.39,10.63,44.0
"2009-02-17 00:06:00",636841,3.777,76.67,4.446,0.176,8.78,104.13,9.85,10.77,17.94,0,110.1,13.39,10.63,38.7
"2009-02-17 00:06:30",636842,4.778,89,7.92,1.376,11.52,104.13,9.85,10.9,18.13,0,110.1,13.36,10.63,51.0
"2009-02-17 00:07:00",636843,4.493,83.1,7.386,1.086,10.82,104.1309,9.85,10.87,18.11,0,110.1,13.35,10.64,45.1
"2009-02-17 00:07:30",636844,4.498,83,6.352,1.075,11.35,104.1326,9.85,10.93,18.21,0,110.1,13.36,10.64,45.0
"2009-02-17 00:08:00",636845,6.005,87.7,4.606,0.79,14.27,104.1315,9.85,11,18.22,0,110.1,13.36,10.64,49.7
"2009-02-17 00:08:30",636846,4.745,81.9,7.294,1.33,11.4,104.1362,9.86,10.92,18.17,0,110.1,13.36,10.65,43.9
"2009-02-17 00:09:00",636847,3.41,76.95,2.139,0.091,8.7,104.1377,9.87,10.73,18.02,0,110.1,13.39,10.65,38.9
"2009-02-17 00:09:30",636848,3.303,77.39,2.642,0.184,8.6,104.1397,9.87,10.72,17.94,0,110.1,13.39,10.66,39.4
"2009-02-17 00:10:00",636849,3.68,76.22,1.625,0.114,8.83,104.1421,9.88,10.73,17.94,0,110.1,13.4,10.66,38.2
"2009-02-17 00:10:30",636850,4.793,81.3,7.067,1.399,11.48,104.1462,9.89,10.86,18.1,0,110.1,13.36,10.67,43.3
"2009-02-17 00:11:00",636851,4.973,81.3,7.657,1.358,12.14,104.1474,9.89,10.88,18.1,0,110.1,13.36,10.68,43.3
"2009-02-17 00:11:30",636852,5.086,81.7,6.441,1.255,13.18,104.1515,9.9,11.01,18.23,0,110.1,13.36,10.69,43.7
"2009-02-17 00:12:00",636853,5.48,82.5,5.01,1.162,13.86,104.1522,9.9,11.01,18.26,0,110.1,13.36,10.69,44.5
"2009-02-17 00:12:30",636854,5.005,77.98,6.972,1.244,11.56,104.1484,9.89,10.91,18.24,0,110.1,13.36,10.68,40.0
"2009-02-17 00:13:00",636855,3.647,70.82,0.967,0.116,8.53,104.1505,9.9,10.73,18,0,110.1,13.4,10.69,32.8
"2009-02-17 00:13:30",636856,3.955,74.95,1.945,0.134,8.64,104.1489,9.89,10.72,18.01,0,110.1,13.4,10.68,36.9
"2009-02-17 00:14:00",636857,4.03,71.78,2.157,0.139,8.97,104.1444,9.88,10.73,18.07,0,110.1,13.4,10.67,33.8
"2009-02-17 00:14:30",636858,5.229,75.66,8.96,1.553,11.31,104.1353,9.86,10.88,18.3,0,110.1,13.37,10.65,37.7
"2009-02-17 00:15:00",636859,6.536,88.2,4.251,1.14,14.04,104.1308,9.85,11.01,18.51,0,110.1,13.37,10.63,50.2
"2009-02-17 00:15:30",636860,6.901,86.9,5.978,1.087,13.6,104.1314,9.85,10.99,18.51,0,110.1,13.37,10.64,48.9
"2009-02-17 00:16:00",636861,6.497,85,5.876,1.16,13.1,104.1314,9.85,10.96,18.47,0,110.1,13.37,10.64,47.0
"2009-02-17 00:16:30",636862,5.028,73.24,5.289,0.916,9.47,104.1314,9.85,10.76,18.25,0,110.1,13.37,10.64,35.2
"2009-02-17 00:17:00",636863,4.792,72.71,2.124,0.18,8.73,104.1289,9.84,10.69,18.17,0,110.1,13.4,10.63,34.7
"2009-02-17 00:17:30",636864,4.581,72.31,3.004,0.227,8.89,104.1249,9.83,10.68,18.14,0,110.1,13.4,10.62,34.3
"2009-02-17 00:18:00",636865,4.452,74.45,2.981,0.119,9.43,104.1226,9.83,10.7,18.16,0,110.1,13.41,10.61,36.4
"2009-02-17 00:18:30",636866,6.023,79.19,4.747,1.217,13.47,104.1215,9.82,10.98,18.39,0,110.1,13.37,10.61,41.2
"2009-02-17 00:19:00",636867,6.019,80.5,6.719,1.263,13.63,104.1226,9.83,10.92,18.24,0,110.1,13.38,10.61,42.5
"2009-02-17 00:19:30",636868,4.885,78.69,3.669,1.181,11.03,104.1238,9.83,10.81,18.16,0,110.1,13.38,10.62,40.7
"2009-02-17 00:20:00",636869,5.528,77.81,4.557,1.319,11.19,104.1249,9.83,10.87,18.26,0,110.1,13.37,10.62,39.8
"2009-02-17 00:20:30",636870,4.089,70.98,1.73,0.214,8.8,104.1255,9.83,10.68,18.03,0,110.1,13.37,10.62,33.0
"2009-02-17 00:21:00",636871,4.019,72.58,1.453,0.185,8.76,104.1246,9.83,10.69,18.1,0,110.1,13.4,10.62,34.6
"2009-02-17 00:21:30",636872,4.542,72,2.907,0.32,9.1,104.1221,9.83,10.71,18.23,0,110.1,13.4,10.61,34.0
"2009-02-17 00:22:00",636873,6.623,83.7,6.177,1.17,12.45,104.1063,9.79,10.86,18.82,0,110.1,13.36,10.57,45.7
"2009-02-17 00:22:30",636874,6.894,86,3.403,0.96,14.31,104.0975,9.76,10.98,18.98,0,110.1,13.37,10.55,48.0
"2009-02-17 00:23:00",636875,6.828,88,4.879,1.151,13.33,104.0936,9.75,10.85,18.8,0,110.1,13.37,10.54,50.0
"2009-02-17 00:23:30",636876,6.224,81.6,5.784,1.077,11.7,104.0772,9.71,10.81,19.03,0,110.1,13.37,10.50,43.6
"2009-02-17 00:24:00",636877,5.023,76.17,3.391,0.901,9.11,104.0662,9.68,10.7,18.97,0,110.1,13.37,10.47,38.2
"2009-02-17 00:24:30",636878,4.818,76.6,3.255,0.223,8.81,104.0637,9.68,10.59,18.79,0,110.1,13.4,10.46,38.6
"2009-02-17 00:25:00",636879,4.862,77.36,2.301,0.214,9.04,104.0583,9.66,10.57,18.91,0,110.1,13.4,10.45,39.4
"2009-02-17 00:25:30",636880,6.841,88.2,5.99,1.187,12.5,104.0428,9.62,10.72,19.22,0,110.1,13.37,10.41,50.2
"2009-02-17 00:26:00",636881,7.141,89.3,4.923,0.905,14.04,104.0304,9.59,10.85,19.18,0,110.1,13.38,10.38,51.3
"2009-02-17 00:26:30",636882,6.215,84.4,5.363,1.127,11.2,104.0298,9.59,10.64,19.24,0,110.1,13.38,10.38,46.4
"2009-02-17 00:27:00",636883,5.55,83.7,7.608,1.335,10.49,104.0298,9.59,10.63,19.13,0,110.1,13.38,10.38,45.7
"2009-02-17 00:27:30",636884,5.963,86.7,7.658,1.244,11.49,104.0298,9.59,10.69,19.13,0,110.1,13.38,10.38,48.7
"2009-02-17 00:28:00",636885,4.701,80.8,2.662,0.13,9.09,104.0298,9.59,10.51,18.9,0,110.1,13.41,10.38,42.8
"2009-02-17 00:28:30",636886,5.383,82.2,3.834,0.734,9.66,104.0298,9.59,10.54,18.99,0,110.1,13.38,10.38,44.2
"2009-02-17 00:29:00",636887,6.648,93.3,4.919,1.162,12.96,104.0298,9.59,10.77,19.23,0,110.1,13.38,10.38,55.3
"2009-02-17 00:29:30",636888,6.147,92.9,6.595,1.292,13.15,104.0298,9.59,10.75,19.03,0,110.1,13.38,10.38,54.9
"2009-02-17 00:30:00",636889,5.396,82.8,5.376,1.045,10.54,104.0304,9.59,10.55,18.84,0,110.1,13.38,10.38,44.8
"2009-02-17 00:30:30",636890,5.863,88.9,6.578,1.244,12.48,104.0304,9.59,10.8,19.15,0,110.1,13.38,10.38,50.9
"2009-02-17 00:31:00",636891,5.75,88.1,8.48,1.405,10.6,104.0327,9.6,10.52,18.93,0,110.1,13.38,10.38,50.1
"2009-02-17 00:31:30",636892,4.754,78.73,6.998,0.694,9.96,104.0339,9.6,10.66,18.95,0,110.1,13.39,10.39,40.7
"2009-02-17 00:32:00",636893,4.587,83.2,2.405,0.185,9.24,104.0354,9.6,10.51,18.74,0,110.1,13.42,10.39,45.2
"2009-02-17 00:32:30",636894,5.168,87.1,9.89,1.275,11.9,104.0439,9.63,10.75,18.77,0,110.1,13.38,10.41,49.1
"2009-02-17 00:33:00",636895,6.007,100.5,8.66,1.274,12.29,104.0636,9.68,10.71,18.75,0,110.1,13.38,10.46,62.5
"2009-02-17 00:33:30",636896,4.007,81.1,9.31,1.111,9.87,104.0716,9.7,10.58,18.6,0,110.1,13.38,10.48,43.1
"2009-02-17 00:34:00",636897,4.515,83.4,5.243,1.255,11.19,104.0798,9.72,10.67,18.48,0,110.1,13.38,10.50,45.4
"2009-02-17 00:34:30",636898,5.215,87.3,5.059,1.217,11.43,104.0825,9.72,10.69,18.61,0,110.1,13.38,10.51,49.3
"2009-02-17 00:35:00",636899,4.946,90.6,10.81,1.122,11.43,104.083,9.73,10.74,18.67,0,110.1,13.38,10.51,52.6
"2009-02-17 00:35:30",636900,4.309,88.9,4.519,0.574,9.25,104.0851,9.73,10.57,18.43,0,110.1,13.38,10.52,50.9
"2009-02-17 00:36:00",636901,4.531,87.5,6.694,1.231,11.35,104.0889,9.74,10.75,18.5,0,110.1,13.38,10.53,49.5
"2009-02-17 00:36:30",636902,4.412,80.9,6.026,1.223,10.62,104.0936,9.75,10.73,18.41,0,110.1,13.39,10.54,42.9
"2009-02-17 00:37:00",636903,4.733,78.64,5.331,1.086,10.87,104.1001,9.77,10.75,18.4,0,110.1,13.39,10.56,40.6
"2009-02-17 00:37:30",636904,5.47,89.2,8.23,1.328,11.64,104.1079,9.79,10.72,18.38,0,110.1,13.38,10.58,51.2
"2009-02-17 00:38:00",636905,4.877,87.4,7.344,1.211,11.69,104.1082,9.79,10.77,18.44,0,110.2,13.38,10.58,49.4
"2009-02-17 00:38:30",636906,4.512,82.5,6.018,1.222,11.85,104.115,9.81,10.82,18.22,0,110.1,13.38,10.59,44.5
"2009-02-17 00:39:00",636907,2.996,78.57,3.014,0.077,9.42,104.1271,9.84,10.71,18.02,0,110.1,13.42,10.63,40.6
"2009-02-17 00:39:30",636908,3.304,77.9,2.898,0.263,9.45,104.1319,9.85,10.77,18.13,0,110.1,13.42,10.64,39.9
"2009-02-17 00:40:00",636909,5.053,86.8,3.235,1.377,11,104.1328,9.85,10.71,18.32,0,110.1,13.38,10.64,48.8
"2009-02-17 00:40:30",636910,3.666,85.6,3.02,0.271,9.26,104.1328,9.85,10.78,18.39,0,110.1,13.42,10.64,47.6
"2009-02-17 00:41:00",636911,4.349,82.6,8.87,1.362,11.18,104.1328,9.85,10.74,18.29,0,110.1,13.38,10.64,44.6
"2009-02-17 00:41:30",636912,4.048,80,4.608,1.007,10.65,104.1328,9.85,10.86,18.32,0,110.1,13.38,10.64,42.0
"2009-02-17 00:42:00",636913,5.571,84.9,6.182,1.196,12.07,104.1325,9.85,10.8,18.3,0,110.1,13.38,10.64,46.9
"2009-02-17 00:42:30",636914,4.476,81,3.389,1.032,10.17,104.1294,9.84,10.74,18.36,0,110.1,13.39,10.63,43.0
"2009-02-17 00:43:00",636915,6.014,95.9,6.098,1.03,13.82,104.1283,9.84,10.87,18.45,0,110,13.39,10.63,57.9
"2009-02-17 00:43:30",636916,4.136,83.1,4.299,0.606,9.67,104.128,9.84,10.8,18.38,0,110.1,13.39,10.63,45.1
"2009-02-17 00:44:00",636917,5.327,89.8,6.219,1.202,10.87,104.1249,9.83,10.73,18.3,0,110,13.39,10.62,51.8
"2009-02-17 00:44:30",636918,4.738,88.8,6.365,1.031,10.26,104.1206,9.82,10.81,18.44,0,110,13.39,10.61,50.8
"2009-02-17 00:45:00",636919,5.409,92.1,6.401,1.324,11.13,104.1156,9.81,10.72,18.34,0,110,13.39,10.60,54.1
"2009-02-17 00:45:30",636920,4.578,91,6.552,0.84,10.27,104.1102,9.8,10.8,18.43,0,110,13.39,10.58,53.0
"2009-02-17 00:46:00",636921,5.766,91.3,8.95,1.228,12.54,104.1119,9.8,10.85,18.42,0,110.1,13.4,10.59,53.3
"2009-02-17 00:46:30",636922,5.306,95.5,9.38,1.351,11.5,104.1127,9.8,10.81,18.46,0,110.1,13.4,10.59,57.5
"2009-02-17 00:47:00",636923,5.803,96.4,8.65,1.2,11.63,104.1048,9.78,10.83,18.55,0,110.1,13.39,10.57,58.4
"2009-02-17 00:47:30",636924,4.364,92.2,2.316,0.144,8.97,104.0989,9.77,10.65,18.41,0,110.1,13.43,10.55,54.2
"2009-02-17 00:48:00",636925,3.871,88.6,3.146,0.317,8.86,104.0989,9.77,10.69,18.28,0,110.1,13.43,10.55,50.6
"2009-02-17 00:48:30",636926,5.206,97.4,6.296,1.339,11.06,104.0989,9.77,10.76,18.5,0,110,13.4,10.55,59.4
"2009-02-17 00:49:00",636927,4.572,95.7,5.467,0.923,10.38,104.0989,9.77,10.79,18.58,0,110.1,13.4,10.55,57.7
"2009-02-17 00:49:30",636928,5.911,102.6,7.096,1.315,12.95,104.0981,9.76,10.84,18.64,0,110.1,13.4,10.55,64.6
"2009-02-17 00:50:00",636929,5.973,104.4,7.51,1.25,12.7,104.0896,9.74,10.83,18.77,0,110.1,13.4,10.53,66.4
"2009-02-17 00:50:30",636930,5.951,102.1,6.053,1.404,12.52,104.0713,9.7,10.86,18.81,0,110.1,13.4,10.48,64.1
"2009-02-17 00:51:00",636931,5.172,99.5,5.053,1.38,11.13,104.065,9.68,10.65,18.53,0,110.1,13.4,10.47,61.5
"2009-02-17 00:51:30",636932,4.34,92.7,3.673,0.229,8.71,104.0653,9.68,10.59,18.44,0,110,13.43,10.47,54.7
"2009-02-17 00:52:00",636933,4.626,95.3,7.142,1.15,9.64,104.0653,9.68,10.59,18.36,0,110.1,13.4,10.47,57.3
"2009-02-17 00:52:30",636934,4.716,100.7,7.052,1.522,11.24,104.065,9.68,10.75,18.53,0,110.1,13.4,10.47,62.7
"2009-02-17 00:53:00",636935,5.077,99,8,1.156,11.7,104.0662,9.68,10.73,18.47,0,110,13.4,10.47,61.0
"2009-02-17 00:53:30",636936,5.357,107.4,8.67,1.171,12.88,104.0696,9.69,10.78,18.5,0,110.1,13.4,10.48,69.4
"2009-02-17 00:54:00",636937,5.192,104.3,8.06,1.435,12.33,104.0715,9.7,10.83,18.55,0,110.1,13.39,10.48,66.3
"2009-02-17 00:54:30",636938,5.526,93,8.6,1.501,11.97,104.0752,9.71,10.73,18.44,0,110,13.39,10.49,55.0
"2009-02-17 00:55:00",636939,3.625,98,7.723,0.216,8.77,104.0763,9.71,10.6,18.25,0,110,13.42,10.50,60.0
"2009-02-17 00:55:30",636940,4.037,98.3,1.206,0.227,8.65,104.0718,9.7,10.62,18.37,0,110,13.42,10.48,60.3
"2009-02-17 00:56:00",636941,4.864,101,5.555,1.076,10.32,104.0656,9.68,10.73,18.53,0,110,13.39,10.47,63.0
"2009-02-17 00:56:30",636942,5.198,101.7,5.386,1.093,11,104.065,9.68,10.66,18.48,0,110,13.39,10.47,63.7
"2009-02-17 00:57:00",636943,5.997,104.5,5.701,1.243,13.09,104.065,9.68,10.84,18.65,0,110,13.4,10.47,66.5
"2009-02-17 00:57:30",636944,6.339,105.8,5.004,1.076,14.25,104.065,9.68,10.92,18.71,0,110,13.39,10.47,67.8
"2009-02-17 00:58:00",636945,5.866,103.5,6.634,1.272,12.16,104.065,9.68,10.68,18.5,0,110,13.39,10.47,65.5
"2009-02-17 00:58:30",636946,4.304,95.8,1.102,0.08,8.95,104.065,9.68,10.58,18.41,0,110,13.43,10.47,57.8
"2009-02-17 00:59:00",636947,4.469,97.3,1.597,0.114,8.59,104.065,9.68,10.59,18.53,0,110,13.43,10.47,59.3
"2009-02-17 00:59:30",636948,4.764,97.6,4.831,0.878,10.03,104.0597,9.67,10.64,18.55,0,110,13.4,10.45,59.6
"2009-02-17 01:00:00",636949,5.821,99.2,4.319,1.208,10.54,104.0532,9.65,10.63,18.76,0,110,13.4,10.44,61.2
"2009-02-17 01:00:30",636950,7.338,107.7,5.912,1.132,13.89,104.036,9.61,10.86,19.1,0,110,13.4,10.39,69.7
"2009-02-17 01:01:00",636951,7.889,113.7,5.138,0.726,14.14,104.0318,9.6,10.84,19.35,0,110,13.4,10.38,75.7
"2009-02-17 01:01:30",636952,7.656,113,6.317,1.196,13.19,104.0092,9.54,10.73,19.41,0,110,13.4,10.32,75.0
"2009-02-17 01:02:00",636953,5.603,105,5.406,0.679,9.31,103.9988,9.51,10.58,19.29,0,110,13.4,10.30,67.0
"2009-02-17 01:02:30",636954,5.406,99.3,4.08,0.336,8.53,103.9838,9.47,10.43,19.15,0,110,13.44,10.26,61.3
"2009-02-17 01:03:00",636955,6.044,104.4,2.908,0.517,8.84,103.9663,9.43,10.48,19.14,0,110.1,13.44,10.21,66.4
"2009-02-17 01:03:30",636956,7.591,114.8,6.991,1.342,12.62,103.9652,9.43,10.5,19.13,0,110,13.4,10.21,76.8
"2009-02-17 01:04:00",636957,8.07,116.2,5.838,1.276,13.29,103.9525,9.39,10.68,19.26,0,110,13.4,10.18,78.2
"2009-02-17 01:04:30",636958,8.39,122.7,5.355,0.643,14.15,103.9342,9.35,10.66,19.19,0,110.1,13.4,10.13,84.7
"2009-02-17 01:05:00",636959,7.931,119,7.88,1.18,12.63,103.9342,9.35,10.54,18.97,0,110,13.4,10.13,81.0
"2009-02-17 01:05:30",636960,5.859,111.6,3.589,0.301,8.59,103.936,9.35,10.3,18.75,0,110,13.44,10.14,73.6
"2009-02-17 01:06:00",636961,5.764,113.6,3.943,0.231,8.57,103.9386,9.36,10.31,18.67,0,110.1,13.44,10.14,75.6
"2009-02-17 01:06:30",636962,6.831,117.6,4.658,1.139,11.19,103.9361,9.35,10.39,18.73,0,110,13.4,10.14,79.6
"2009-02-17 01:07:00",636963,7.11,123.8,7.224,1.529,12.41,103.9307,9.34,10.46,18.85,0,110,13.4,10.12,85.8
"2009-02-17 01:07:30",636964,7.93,123.2,6.972,1.376,12.96,103.9291,9.33,10.54,18.7,0,110,13.4,10.12,85.2
"2009-02-17 01:08:00",636965,8.63,127.3,5.803,0.899,13.61,103.9232,9.32,10.49,18.57,0,110,13.4,10.10,89.3
"2009-02-17 01:08:30",636966,8.35,124,7.496,1.227,12.17,103.9235,9.32,10.44,18.48,0,110,13.4,10.10,86.0
"2009-02-17 01:09:00",636967,6.501,113,2.116,0.213,8.77,103.9241,9.32,10.24,18.17,0,110,13.44,10.10,75.0
"2009-02-17 01:09:30",636968,6.196,119.1,3.726,0.635,9.58,103.9265,9.33,10.37,18.46,0,110,13.4,10.11,81.1
"2009-02-17 01:10:00",636969,7.86,123.2,7.143,1.258,11.84,103.9273,9.33,10.32,18.27,0,110,13.4,10.11,85.2
"2009-02-17 01:10:30",636970,8.01,124.2,6.99,1.305,12.08,103.9246,9.32,10.41,18.1,0,110,13.4,10.11,86.2
"2009-02-17 01:11:00",636971,8.3,124.8,6.103,1.113,13.76,103.9264,9.33,10.48,18.21,0,110,13.4,10.11,86.8
"2009-02-17 01:11:30",636972,8.43,126.9,8.25,1.523,12.86,103.9318,9.34,10.46,18.23,0,110,13.4,10.12,88.9
"2009-02-17 01:12:00",636973,7.005,118.2,3.514,0.24,9.15,103.9262,9.33,10.36,17.81,0,110,13.4,10.11,80.2
"2009-02-17 01:12:30",636974,7.217,121.3,2.179,0.279,8.73,103.9188,9.31,10.22,17.56,0,110,13.4,10.09,83.3
"2009-02-17 01:13:00",636975,8.04,126,7.729,1.206,11.74,103.9206,9.31,10.39,17.71,0,110,13.4,10.10,88.0
"2009-02-17 01:13:30",636976,9.1,129.4,7.271,1.322,13.02,103.9218,9.31,10.42,17.76,0,110,13.4,10.10,91.4
"2009-02-17 01:14:00",636977,9.56,127.9,6.717,1.194,12.97,103.9212,9.31,10.42,17.49,0,110,13.4,10.10,89.9
"2009-02-17 01:14:30",636978,10.22,131.9,5.5,0.912,13.38,103.9221,9.31,10.45,17.37,0,110,13.4,10.10,93.9
"2009-02-17 01:15:00",636979,9.58,130.2,5.555,1.234,11.82,103.9153,9.3,10.45,17.33,0,110,13.4,10.08,92.2
"2009-02-17 01:15:30",636980,8.81,128.3,6.435,1.066,10.28,103.9044,9.27,10.32,17.79,0,110,13.4,10.05,90.3
"2009-02-17 01:16:00",636981,8.66,125.1,5.428,1.092,9.42,103.8899,9.23,10.29,18.87,0,110,13.4,10.02,87.1
"2009-02-17 01:16:30",636982,10.07,124.1,7.286,1.263,10.3,103.879,9.2,10.28,22.85,0,110,13.4,9.99,86.1
"2009-02-17 01:17:00",636983,11.59,128.8,6.448,1.405,11.62,103.8453,9.12,10.49,24.57,0,110,13.41,9.90,90.8
"2009-02-17 01:17:30",636984,12.66,131.7,4.179,0.582,13.02,103.8072,9.02,10.38,25.31,0,110,13.4,9.80,93.7
"2009-02-17 01:18:00",636985,12.13,133.1,3.039,1.009,12.5,103.7657,8.91,10.36,25.43,0,110,13.4,9.70,95.1
"2009-02-17 01:18:30",636986,11.81,131.9,6.476,1.149,11.27,103.7327,8.83,10.2,25.24,0,110,13.4,9.61,93.9
"2009-02-17 01:19:00",636987,11.2,127.7,5.94,1.314,9.94,103.7037,8.76,9.99,25.24,0,110,13.4,9.54,89.7
"2009-02-17 01:19:30",636988,10.2,124.1,1.844,0.218,8.64,103.6809,8.7,10.01,25.07,0,110,13.44,9.48,86.1
"2009-02-17 01:20:00",636989,11.8,134.5,6.29,1.115,12.29,103.6509,8.62,9.98,24.91,0,110,13.4,9.40,96.5
"2009-02-17 01:20:30",636990,12.09,137.6,2.94,0.902,13.14,103.623,8.55,10,24.83,0,110.1,13.4,9.33,99.6
"2009-02-17 01:21:00",636991,12.18,136.4,3.511,0.69,13.15,103.5987,8.49,9.89,24.56,0,110,13.4,9.27,98.4
"2009-02-17 01:21:30",636992,12.21,136.1,4.061,0.58,13.02,103.5832,8.45,9.85,24.21,0,110,13.4,9.23,98.1
"2009-02-17 01:22:00",636993,12.06,136.4,2.949,0.696,12.6,103.5587,8.39,9.77,23.9,0,110,13.4,9.17,98.4
"2009-02-17 01:22:30",636994,11.72,136.1,3.67,0.697,12.35,103.5575,8.38,9.71,23.68,0,110,13.4,9.16,98.1
"2009-02-17 01:23:00",636995,10.74,131.7,6.281,1.277,10.47,103.5364,8.33,9.59,23.4,0,110,13.4,9.11,93.7
"2009-02-17 01:23:30",636996,9.16,125.7,0.74,0.165,8.02,103.5242,8.3,9.33,22.99,0,110,13.44,9.08,87.7
"2009-02-17 01:24:00",636997,9.96,128.8,5.882,1.005,9.94,103.5242,8.3,9.47,22.92,0,110,13.4,9.08,90.8
"2009-02-17 01:24:30",636998,11.8,137.1,5.294,0.618,13.22,103.5242,8.3,9.48,22.68,0,110,13.4,9.08,99.1
"2009-02-17 01:25:00",636999,11.8,138.9,4.333,0.737,13.8,103.5234,8.3,9.57,22.62,0,110,13.41,9.08,100.9
"2009-02-17 01:25:30",637000,11.99,139.4,3.375,0.679,13.4,103.5206,8.29,9.55,22.39,0,110,13.41,9.07,101.4
"2009-02-17 01:26:00",637001,11.79,139.7,3.588,0.791,12.93,103.5138,8.27,9.53,22.19,0,110,13.41,9.05,101.7
"2009-02-17 01:26:30",637002,11.42,140.3,3.344,0.908,12.76,103.5132,8.27,9.52,21.91,0,110,13.4,9.05,102.3
"2009-02-17 01:27:00",637003,9.03,129.7,0.549,0.088,8.31,103.5152,8.27,9.21,21.44,0,110,13.43,9.06,91.7
"2009-02-17 01:27:30",637004,10.25,136.3,6.618,1.257,10.81,103.5191,8.28,9.34,21.33,0,110,13.4,9.07,98.3
"2009-02-17 01:28:00",637005,9.9,134,6.424,1.164,10.8,103.5231,8.29,9.45,21.14,0,110,13.4,9.08,96.0
"2009-02-17 01:28:30",637006,11.21,141.6,4.117,0.807,13.74,103.5242,8.3,9.51,20.89,0,110,13.4,9.08,103.6
"2009-02-17 01:29:00",637007,11.03,141,3.565,0.684,13.63,103.5242,8.3,9.53,20.73,0,110,13.4,9.08,103.0
"2009-02-17 01:29:30",637008,10.77,142.2,3.498,0.575,13.66,103.5242,8.3,9.53,20.47,0,110,13.4,9.08,104.2
"2009-02-17 01:30:00",637009,8.39,132.1,3.367,0.74,9.26,103.5352,8.33,9.28,19.79,0,110,13.4,9.11,94.1
"2009-02-17 01:30:30",637010,9.3,137.6,6.653,1.288,11,103.5544,8.37,9.36,19.68,0,110,13.4,9.16,99.6
"2009-02-17 01:31:00",637011,9.11,136.7,6.809,1.256,11.2,103.5581,8.38,9.45,19.75,0,110,13.4,9.17,98.7
"2009-02-17 01:31:30",637012,9.79,140.5,5.938,1.116,12.31,103.5581,8.38,9.43,19.54,0,110,13.4,9.17,102.5
"2009-02-17 01:32:00",637013,10.17,142.4,5.019,0.978,13.2,103.5742,8.43,9.59,19.58,0,110,13.41,9.21,104.4
"2009-02-17 01:32:30",637014,10.26,141.7,5.028,0.981,13.02,103.5903,8.47,9.6,19.48,0,110,13.41,9.25,103.7
"2009-02-17 01:33:00",637015,9.96,141,5.875,1.054,12.45,103.592,8.47,9.52,19.38,0,110,13.41,9.25,103.0
"2009-02-17 01:33:30",637016,9.06,136.7,7.376,1.327,10.81,103.592,8.47,9.46,19.16,0,110,13.41,9.25,98.7
"2009-02-17 01:34:00",637017,9.06,136.7,6.805,1.209,10.47,103.6007,8.49,9.58,19.37,0,110,13.41,9.27,98.7
"2009-02-17 01:34:30",637018,9.56,141.6,6.457,1.247,11.21,103.6061,8.51,9.43,19.79,0,110,13.41,9.29,103.6
"2009-02-17 01:35:00",637019,10.04,143.1,6.435,1.116,12.5,103.607,8.51,9.65,20.02,0,110,13.41,9.29,105.1
"2009-02-17 01:35:30",637020,10.08,145.4,5.617,1.158,12.85,103.6053,8.5,9.7,19.96,0,110,13.41,9.29,107.4
"2009-02-17 01:36:00",637021,10.37,145.9,5.557,0.973,13.11,103.6115,8.52,9.64,19.66,0,110,13.41,9.30,107.9
"2009-02-17 01:36:30",637022,9.43,142.4,6.332,1.276,11.54,103.6166,8.53,9.59,19.44,0,110,13.41,9.32,104.4
"2009-02-17 01:37:00",637023,8.67,140.7,6.19,1.171,10.34,103.6239,8.55,9.48,19.1,0,110,13.41,9.33,102.7
"2009-02-17 01:37:30",637024,8.72,141.1,6.312,1.252,10.98,103.6259,8.56,9.64,19.11,0,110,13.41,9.34,103.1
"2009-02-17 01:38:00",637025,9.56,143.8,5.976,1.245,11.95,103.6259,8.56,9.57,18.93,0,110,13.41,9.34,105.8
"2009-02-17 01:38:30",637026,9.38,142.8,6.151,1.406,12.02,103.6259,8.56,9.65,18.89,0,110,13.41,9.34,104.8
"2009-02-17 01:39:00",637027,9.84,144.9,5.793,1.218,12.55,103.6259,8.56,9.7,18.8,0,110,13.41,9.34,106.9
"2009-02-17 01:39:30",637028,9.83,144.7,5.909,1.079,12.66,103.6259,8.56,9.69,18.67,0,110,13.41,9.34,106.7
"2009-02-17 01:40:00",637029,8.92,141.4,6.24,1.243,11.52,103.6259,8.56,9.64,18.62,0,110,13.41,9.34,103.4
"2009-02-17 01:40:30",637030,8.6,141,6.381,1.164,10.44,103.6259,8.56,9.54,18.44,0,110,13.41,9.34,103.0
"2009-02-17 01:41:00",637031,8.54,140.8,5.919,1.273,10.72,103.6262,8.56,9.56,18.46,0,110,13.41,9.34,102.8
"2009-02-17 01:41:30",637032,9.14,144,6.615,1.19,12.58,103.627,8.56,9.79,18.73,0,110,13.41,9.34,106.0
"2009-02-17 01:42:00",637033,9.34,144.9,6.459,1.217,12.16,103.6298,8.57,9.71,18.77,0,110,13.41,9.35,106.9
"2009-02-17 01:42:30",637034,9.78,146.8,5.639,1.107,12.57,103.627,8.56,9.76,19.23,0,110,13.41,9.34,108.8
"2009-02-17 01:43:00",637035,9.87,145.6,6.007,1.082,12.08,103.6262,8.56,9.69,20.25,0,110,13.41,9.34,107.6
"2009-02-17 01:43:30",637036,8.49,141.2,5.924,1.142,10.19,103.6259,8.56,9.64,19.86,0,110,13.41,9.34,103.2
"2009-02-17 01:44:00",637037,8.09,140.1,5.906,1.059,10.28,103.6259,8.56,9.65,19.38,0,110,13.41,9.34,102.1
"2009-02-17 01:44:30",637038,8.98,145.5,6.29,1.291,11.76,103.6259,8.56,9.66,19,0,110,13.41,9.34,107.5
"2009-02-17 01:45:00",637039,8.79,144.7,6.625,1.224,11.89,103.6259,8.56,9.67,18.75,0,110,13.41,9.34,106.7
"2009-02-17 01:45:30",637040,8.41,143.9,6.676,1.231,11.41,103.6259,8.56,9.74,18.65,0,110,13.41,9.34,105.9
"2009-02-17 01:46:00",637041,9.13,147.1,5.755,1.075,12.2,103.6259,8.56,9.63,18.63,0,110,13.41,9.34,109.1
"2009-02-17 01:46:30",637042,8.16,142.3,6.273,1.273,10.67,103.6262,8.56,9.61,18.93,0,110,13.41,9.34,104.3
"2009-02-17 01:47:00",637043,8.33,144.2,7.008,1.293,10.5,103.6262,8.56,9.65,19.6,0,110,13.41,9.34,106.2
"2009-02-17 01:47:30",637044,8.94,149,6.178,1.211,12.28,103.6259,8.56,9.74,20.19,0,110,13.41,9.34,111.0
"2009-02-17 01:48:00",637045,8.81,148.3,6.391,1.257,11.31,103.6242,8.55,9.59,21.05,0,110,13.41,9.34,110.3
"2009-02-17 01:48:30",637046,8.57,148.6,6.201,1.227,11.46,103.6041,8.5,9.67,21.46,0,110,13.41,9.28,110.6
"2009-02-17 01:49:00",637047,8.62,150.9,5.417,1.093,12.42,103.5923,8.47,9.63,21.83,0,110,13.41,9.25,112.9
"2009-02-17 01:49:30",637048,7.029,143.2,5.036,1.051,9.67,103.5923,8.47,9.49,20.62,0,110,13.41,9.25,105.2
"2009-02-17 01:50:00",637049,7.619,148,6.707,1.257,11.54,103.5926,8.47,9.61,19.58,0,110,13.41,9.25,110.0
"2009-02-17 01:50:30",637050,7.511,147.4,6.656,1.292,11.08,103.5929,8.47,9.58,19.23,0,110,13.41,9.25,109.4
"2009-02-17 01:51:00",637051,7.039,147.2,6.426,1.253,11.09,103.5932,8.47,9.58,18.75,0,110,13.42,9.26,109.2
"2009-02-17 01:51:30",637052,6.763,145.8,5.997,1.155,10.4,103.6082,8.51,9.64,18.3,0,110,13.42,9.29,107.8
"2009-02-17 01:52:00",637053,7.736,151.5,5.586,1.106,12.4,103.6251,8.56,9.66,18.21,0,110,13.42,9.34,113.5
"2009-02-17 01:52:30",637054,6.459,144.9,5.61,1.17,10.79,103.6273,8.56,9.66,17.87,0,110,13.42,9.34,106.9